QPF
0.10 0.10 0.09 0.09 0.07 0.07 0.07 0.07 0.05 0.04 0.02 0.02 0.01 0.00 0.00 0.00 0.01 0.02 0.04 0.01 0.00 0.01 0.02 0.02 0.02 0.02 0.03 0.03 0.01 0.01 0.02 0.02 0.01 0.01 0.01 0.02 0.01 0.01 0.01 0.01 0.02 0.01 0.01
0.06 0.07 0.07 0.08 0.06 0.06 0.07 0.07 0.05 0.04 0.03 0.01 0.01 0.00 0.00 0.00 0.02 0.03 0.03 0.02 0.01 0.01 0.01 0.01 0.02 0.03 0.04 0.05 0.03 0.03 0.03 0.03 0.02 0.01 0.02 0.03 0.03 0.03 0.02 0.02 0.03 0.03 0.02
0.06 0.06 0.07 0.07 0.06 0.04 0.05 0.05 0.05 0.05 0.05 0.04 0.03 0.01 0.01 0.01 0.02 0.02 0.04 0.04 0.03 0.01 0.01 0.02 0.03 0.03 0.04 0.06 0.05 0.04 0.04 0.03 0.02 0.01 0.01 0.02 0.03 0.03 0.03 0.03 0.02 0.02 0.03
0.06 0.08 0.07 0.08 0.07 0.05 0.03 0.06 0.05 0.05 0.08 0.07 0.05 0.04 0.02 0.01 0.01 0.02 0.03 0.04 0.06 0.05 0.04 0.03 0.02 0.02 0.04 0.06 0.07 0.06 0.05 0.03 0.03 0.03 0.02 0.02 0.01 0.02 0.03 0.03 0.02 0.02 0.01
0.05 0.06 0.08 0.10 0.05 0.05 0.05 0.04 0.06 0.08 0.10 0.09 0.06 0.05 0.02 0.01 0.02 0.03 0.04 0.04 0.06 0.08 0.07 0.05 0.04 0.03 0.03 0.04 0.04 0.04 0.04 0.05 0.05 0.03 0.03 0.04 0.04 0.03 0.03 0.03 0.02 0.03 0.02
0.07 0.06 0.06 0.08 0.05 0.08 0.09 0.08 0.12 0.12 0.11 0.08 0.05 0.06 0.03 0.02 0.04 0.06 0.06 0.06 0.06 0.05 0.06 0.06 0.06 0.03 0.02 0.02 0.03 0.04 0.05 0.05 0.04 0.04 0.03 0.03 0.03 0.03 0.02 0.03 0.03 0.04 0.04
0.07 0.08 0.09 0.10 0.07 0.09 0.08 0.09 0.11 0.13 0.11 0.08 0.11 0.11 0.06 0.05 0.08 0.07 0.07 0.09 0.07 0.04 0.04 0.06 0.07 0.07 0.05 0.04 0.04 0.06 0.07 0.07 0.07 0.07 0.05 0.04 0.03 0.02 0.02 0.02 0.02 0.02 0.03
0.05 0.08 0.09 0.07 0.07 0.09 0.10 0.12 0.12 0.13 0.12 0.09 0.12 0.16 0.15 0.17 0.19 0.10 0.08 0.07 0.06 0.05 0.04 0.06 0.09 0.11 0.09 0.11 0.07 0.05 0.05 0.06 0.07 0.07 0.05 0.05 0.05 0.04 0.03 0.03 0.02 0.02 0.02
0.04 0.07 0.07 0.07 0.09 0.07 0.12 0.12 0.11 0.12 0.14 0.11 0.11 0.15 0.19 0.21 0.18 0.10 0.08 0.06 0.06 0.08 0.08 0.08 0.08 0.11 0.12 0.13 0.09 0.05 0.03 0.03 0.05 0.05 0.05 0.06 0.06 0.04 0.04 0.03 0.03 0.03 0.04
0.06 0.05 0.05 0.07 0.08 0.08 0.12 0.08 0.11 0.13 0.13 0.11 0.13 0.13 0.15 0.17 0.19 0.16 0.11 0.08 0.07 0.08 0.09 0.09 0.10 0.11 0.10 0.10 0.08 0.05 0.02 0.04 0.05 0.06 0.05 0.06 0.07 0.06 0.06 0.05 0.06 0.07 0.08
0.07 0.04 0.06 0.08 0.09 0.10 0.10 0.10 0.15 0.12 0.11 0.11 0.13 0.14 0.16 0.16 0.14 0.17 0.16 0.12 0.10 0.08 0.08 0.09 0.09 0.09 0.08 0.07 0.08 0.05 0.03 0.06 0.07 0.06 0.06 0.06 0.07 0.08 0.07 0.08 0.11 0.12 0.12
0.07 0.06 0.07 0.09 0.09 0.11 0.12 0.10 0.11 0.12 0.12 0.12 0.12 0.12 0.12 0.14 0.16 0.19 0.17 0.15 0.13 0.08 0.07 0.08 0.08 0.07 0.07 0.07 0.06 0.05 0.04 0.05 0.04 0.03 0.04 0.04 0.05 0.07 0.08 0.10 0.12 0.15 0.18
0.07 0.07 0.07 0.09 0.09 0.08 0.08 0.10 0.11 0.11 0.11 0.11 0.10 0.10 0.10 0.10 0.12 0.15 0.16 0.14 0.11 0.09 0.09 0.09 0.08 0.08 0.07 0.09 0.09 0.07 0.05 0.07 0.06 0.04 0.03 0.02 0.02 0.03 0.05 0.06 0.09 0.12 0.15
0.06 0.06 0.07 0.07 0.07 0.06 0.05 0.07 0.06 0.08 0.09 0.08 0.07 0.11 0.12 0.11 0.11 0.12 0.14 0.15 0.13 0.10 0.11 0.10 0.10 0.09 0.09 0.09 0.12 0.11 0.07 0.07 0.06 0.04 0.03 0.03 0.02 0.02 0.03 0.05 0.07 0.08 0.09
0.05 0.07 0.07 0.07 0.07 0.06 0.06 0.07 0.07 0.07 0.08 0.08 0.09 0.13 0.12 0.11 0.11 0.11 0.11 0.12 0.14 0.12 0.11 0.11 0.09 0.09 0.12 0.10 0.09 0.06 0.07 0.08 0.06 0.05 0.03 0.03 0.02 0.03 0.03 0.03 0.03 0.04 0.04
0.06 0.08 0.08 0.08 0.07 0.06 0.06 0.08 0.08 0.08 0.09 0.09 0.09 0.09 0.10 0.09 0.10 0.11 0.12 0.13 0.16 0.16 0.11 0.09 0.10 0.08 0.11 0.14 0.13 0.08 0.07 0.07 0.06 0.05 0.04 0.03 0.03 0.03 0.03 0.03 0.04 0.04 0.04
0.07 0.08 0.08 0.06 0.06 0.06 0.07 0.08 0.06 0.07 0.09 0.09 0.08 0.08 0.08 0.09 0.10 0.09 0.11 0.11 0.13 0.14 0.11 0.08 0.09 0.11 0.14 0.14 0.13 0.10 0.08 0.07 0.07 0.06 0.05 0.05 0.05 0.05 0.05 0.04 0.04 0.04 0.03
0.07 0.08 0.08 0.08 0.06 0.07 0.07 0.06 0.05 0.06 0.08 0.07 0.07 0.09 0.08 0.10 0.09 0.08 0.09 0.11 0.12 0.13 0.12 0.09 0.08 0.09 0.10 0.12 0.11 0.09 0.07 0.06 0.06 0.07 0.07 0.06 0.06 0.06 0.07 0.06 0.05 0.03 0.03
0.07 0.07 0.07 0.07 0.07 0.08 0.07 0.05 0.05 0.06 0.05 0.05 0.05 0.06 0.07 0.08 0.09 0.09 0.10 0.10 0.10 0.09 0.10 0.09 0.07 0.08 0.08 0.09 0.08 0.07 0.06 0.05 0.04 0.05 0.05 0.05 0.05 0.04 0.04 0.04 0.03 0.03 0.02
0.07 0.07 0.06 0.06 0.06 0.06 0.06 0.06 0.06 0.06 0.05 0.04 0.05 0.06 0.06 0.06 0.07 0.08 0.08 0.08 0.08 0.08 0.09 0.09 0.08 0.08 0.09 0.08 0.07 0.07 0.07 0.09 0.08 0.06 0.07 0.07 0.06 0.06 0.05 0.05 0.04 0.04 0.04
0.05 0.07 0.07 0.08 0.06 0.05 0.04 0.04 0.05 0.06 0.06 0.06 0.06 0.06 0.06 0.05 0.05 0.05 0.04 0.06 0.06 0.07 0.07 0.07 0.07 0.07 0.07 0.06 0.07 0.08 0.09 0.09 0.08 0.06 0.05 0.05 0.05 0.05 0.05 0.05 0.04 0.03 0.03
0.04 0.05 0.07 0.07 0.06 0.04 0.03 0.04 0.04 0.06 0.08 0.09 0.09 0.09 0.07 0.04 0.02 0.02 0.01 0.02 0.03 0.04 0.04 0.05 0.06 0.06 0.07 0.06 0.06 0.06 0.05 0.04 0.04 0.04 0.03 0.04 0.04 0.04 0.04 0.03 0.03 0.02 0.02
0.05 0.05 0.07 0.06 0.05 0.03 0.02 0.03 0.03 0.05 0.09 0.10 0.11 0.11 0.07 0.03 0.02 0.02 0.02 0.01 0.02 0.02 0.02 0.03 0.04 0.05 0.05 0.05 0.05 0.05 0.05 0.04 0.04 0.04 0.04 0.04 0.04 0.03 0.03 0.03 0.03 0.02 0.01
0.05 0.05 0.06 0.05 0.04 0.03 0.02 0.02 0.03 0.05 0.08 0.08 0.08 0.08 0.06 0.05 0.02 0.02 0.02 0.02 0.02 0.02 0.01 0.01 0.02 0.03 0.03 0.04 0.04 0.05 0.05 0.04 0.04 0.04 0.04 0.04 0.04 0.03 0.03 0.03 0.03 0.02 0.01
0.05 0.05 0.04 0.04 0.03 0.02 0.02 0.02 0.02 0.04 0.05 0.06 0.06 0.05 0.05 0.04 0.03 0.02 0.02 0.02 0.02 0.02 0.01 0.01 0.01 0.01 0.01 0.02 0.03 0.03 0.03 0.03 0.04 0.04 0.03 0.03 0.03 0.02 0.02 0.02 0.02 0.01 0.01
0.05 0.04 0.03 0.03 0.03 0.03 0.01 0.01 0.01 0.02 0.03 0.04 0.05 0.05 0.04 0.03 0.02 0.02 0.03 0.03 0.02 0.02 0.01 0.01 0.01 0.01 0.01 0.01 0.02 0.02 0.02 0.02 0.03 0.02 0.02 0.01 0.02 0.02 0.02 0.02 0.01 0.01 0.01
MSLP
1015.22 1015.47 1015.71 1015.95 1016.21 1016.47 1016.75 1017.01 1017.22 1017.35 1017.39 1017.34 1017.24 1017.13 1017.08 1017.14 1017.36 1017.74 1018.26 1018.85 1019.46 1020.01 1020.45 1020.76 1020.93 1021.00 1021.00 1020.99 1021.01 1021.07 1021.18 1021.33 1021.50 1021.67 1021.82 1021.94 1022.05 1022.14 1022.22 1022.31 1022.41 1022.51 1022.61
1015.34 1015.65 1015.96 1016.25 1016.53 1016.80 1017.05 1017.27 1017.44 1017.54 1017.56 1017.51 1017.42 1017.32 1017.28 1017.32 1017.48 1017.79 1018.20 1018.70 1019.22 1019.72 1020.14 1020.47 1020.70 1020.84 1020.92 1020.98 1021.04 1021.12 1021.23 1021.36 1021.49 1021.63 1021.75 1021.86 1021.95 1022.05 1022.14 1022.24 1022.35 1022.45 1022.56
1015.40 1015.76 1016.11 1016.43 1016.72 1016.98 1017.22 1017.41 1017.56 1017.65 1017.68 1017.66 1017.61 1017.55 1017.51 1017.53 1017.64 1017.84 1018.14 1018.50 1018.90 1019.30 1019.67 1019.99 1020.26 1020.47 1020.64 1020.78 1020.90 1021.03 1021.15 1021.27 1021.38 1021.48 1021.58 1021.68 1021.77 1021.87 1021.98 1022.10 1022.22 1022.34 1022.45
1015.40 1015.76 1016.12 1016.46 1016.75 1017.01 1017.23 1017.41 1017.55 1017.65 1017.72 1017.75 1017.76 1017.74 1017.74 1017.75 1017.80 1017.90 1018.05 1018.26 1018.51 1018.78 1019.07 1019.36 1019.63 1019.89 1020.13 1020.35 1020.55 1020.72 1020.87 1020.99 1021.10 1021.19 1021.28 1021.37 1021.47 1021.58 1021.71 1021.85 1021.99 1022.13 1022.26
1015.31 1015.66 1016.02 1016.35 1016.64 1016.88 1017.09 1017.27 1017.42 1017.55 1017.66 1017.76 1017.83 1017.89 1017.92 1017.93 1017.94 1017.94 1017.97 1018.01 1018.10 1018.23 1018.41 1018.63 1018.88 1019.15 1019.44 1019.71 1019.96 1020.18 1020.36 1020.50 1020.61 1020.71 1020.80 1020.90 1021.02 1021.16 1021.31 1021.48 1021.64 1021.80 1021.94
1015.17 1015.50 1015.83 1016.15 1016.42 1016.66 1016.86 1017.03 1017.19 1017.35 1017.52 1017.68 1017.83 1017.95 1018.04 1018.07 1018.05 1017.99 1017.90 1017.81 1017.74 1017.72 1017.77 1017.90 1018.09 1018.34 1018.63 1018.92 1019.20 1019.45 1019.66 1019.82 1019.95 1020.06 1020.18 1020.30 1020.45 1020.61 1020.79 1020.98 1021.16 1021.33 1021.47
1015.03 1015.32 1015.62 1015.92 1016.19 1016.41 1016.61 1016.77 1016.94 1017.12 1017.32 1017.54 1017.76 1017.95 1018.09 1018.16 1018.15 1018.04 1017.88 1017.68 1017.49 1017.33 1017.25 1017.27 1017.37 1017.56 1017.81 1018.08 1018.36 1018.61 1018.83 1019.01 1019.17 1019.31 1019.45 1019.61 1019.78 1019.97 1020.17 1020.37 1020.56 1020.72 1020.86
1014.92 1015.17 1015.45 1015.74 1016.00 1016.22 1016.40 1016.56 1016.72 1016.91 1017.13 1017.38 1017.64 1017.89 1018.09 1018.21 1018.22 1018.12 1017.92 1017.66 1017.38 1017.12 1016.92 1016.82 1016.81 1016.91 1017.08 1017.30 1017.54 1017.77 1017.99 1018.18 1018.35 1018.52 1018.70 1018.89 1019.09 1019.30 1019.51 1019.70 1019.87 1020.01 1020.13
1014.86 1015.08 1015.36 1015.64 1015.89 1016.11 1016.29 1016.43 1016.58 1016.75 1016.96 1017.22 1017.51 1017.80 1018.05 1018.22 1018.28 1018.21 1018.02 1017.74 1017.42 1017.09 1016.80 1016.59 1016.47 1016.46 1016.53 1016.67 1016.84 1017.03 1017.23 1017.42 1017.62 1017.81 1018.02 1018.24 1018.45 1018.67 1018.86 1019.03 1019.15 1019.25 1019.32
1014.82 1015.05 1015.33 1015.61 1015.88 1016.10 1016.27 1016.40 1016.52 1016.65 1016.84 1017.08 1017.37 1017.68 1017.96 1018.19 1018.31 1018.30 1018.16 1017.91 1017.57 1017.21 1016.86 1016.56 1016.35 1016.22 1016.19 1016.23 1016.33 1016.47 1016.64 1016.83 1017.03 1017.26 1017.49 1017.72 1017.95 1018.14 1018.30 1018.42 1018.48 1018.50 1018.50
1014.79 1015.03 1015.32 1015.63 1015.91 1016.14 1016.30 1016.42 1016.50 1016.60 1016.74 1016.95 1017.22 1017.53 1017.84 1018.12 1018.30 1018.36 1018.29 1018.09 1017.78 1017.42 1017.04 1016.68 1016.39 1016.17 1016.03 1015.98 1016.01 1016.10 1016.24 1016.43 1016.65 1016.89 1017.15 1017.39 1017.61 1017.78 1017.89 1017.93 1017.90 1017.84 1017.75
1014.71 1014.97 1015.29 1015.62 1015.92 1016.17 1016.33 1016.43 1016.49 1016.55 1016.65 1016.81 1017.05 1017.35 1017.68 1017.99 1018.23 1018.36 1018.36 1018.23 1017.98 1017.64 1017.26 1016.87 1016.51 1016.22 1016.01 1015.89 1015.85 1015.90 1016.03 1016.21 1016.46 1016.72 1017.00 1017.25 1017.46 1017.59 1017.64 1017.59 1017.47 1017.30 1017.11
1014.55 1014.83 1015.18 1015.54 1015.86 1016.12 1016.30 1016.39 1016.43 1016.46 1016.52 1016.65 1016.86 1017.14 1017.47 1017.80 1018.09 1018.28 1018.35 1018.28 1018.09 1017.79 1017.43 1017.03 1016.64 1016.31 1016.05 1015.87 1015.80 1015.83 1015.96 1016.16 1016.42 1016.72 1017.02 1017.28 1017.47 1017.56 1017.55 1017.42 1017.20 1016.92 1016.62
1014.32 1014.62 1014.98 1015.36 1015.71 1015.98 1016.17 1016.27 1016.30 1016.32 1016.36 1016.46 1016.64 1016.90 1017.22 1017.57 1017.88 1018.12 1018.24 1018.24 1018.10 1017.84 1017.50 1017.12 1016.73 1016.37 1016.09 1015.90 1015.81 1015.84 1015.98 1016.21 1016.50 1016.83 1017.15 1017.42 1017.60 1017.66 1017.59 1017.39 1017.08 1016.69 1016.28
1014.04 1014.35 1014.72 1015.11 1015.47 1015.76 1015.96 1016.07 1016.12 1016.13 1016.17 1016.25 1016.42 1016.67 1016.98 1017.32 1017.64 1017.90 1018.06 1018.10 1018.00 1017.79 1017.48 1017.12 1016.74 1016.40 1016.11 1015.93 1015.85 1015.89 1016.05 1016.31 1016.64 1017.00 1017.34 1017.62 1017.80 1017.84 1017.73 1017.47 1017.08 1016.61 1016.11
1013.76 1014.06 1014.44 1014.83 1015.20 1015.50 1015.72 1015.85 1015.91 1015.94 1015.98 1016.07 1016.23 1016.46 1016.76 1017.09 1017.41 1017.68 1017.85 1017.91 1017.84 1017.66 1017.39 1017.06 1016.71 1016.39 1016.13 1015.96 1015.90 1015.97 1016.16 1016.44 1016.80 1017.18 1017.54 1017.83 1018.01 1018.04 1017.91 1017.62 1017.18 1016.65 1016.08
1013.52 1013.83 1014.20 1014.59 1014.96 1015.28 1015.51 1015.66 1015.75 1015.80 1015.85 1015.95 1016.10 1016.33 1016.61 1016.92 1017.23 1017.49 1017.66 1017.73 1017.69 1017.53 1017.29 1017.00 1016.69 1016.40 1016.17 1016.03 1015.99 1016.08 1016.29 1016.59 1016.96 1017.35 1017.72 1018.02 1018.21 1018.24 1018.11 1017.80 1017.36 1016.80 1016.18
1013.37 1013.67 1014.04 1014.44 1014.81 1015.13 1015.38 1015.55 1015.65 1015.72 1015.80 1015.90 1016.06 1016.28 1016.54 1016.84 1017.13 1017.37 1017.54 1017.61 1017.58 1017.45 1017.25 1016.99 1016.72 1016.47 1016.27 1016.16 1016.15 1016.25 1016.45 1016.75 1017.12 1017.50 1017.87 1018.17 1018.36 1018.41 1018.29 1018.01 1017.57 1017.03 1016.41
1013.29 1013.61 1013.99 1014.38 1014.76 1015.08 1015.34 1015.52 1015.64 1015.73 1015.81 1015.93 1016.09 1016.30 1016.55 1016.83 1017.10 1017.33 1017.50 1017.57 1017.56 1017.46 1017.30 1017.08 1016.85 1016.64 1016.48 1016.39 1016.38 1016.47 1016.67 1016.94 1017.28 1017.64 1017.99 1018.28 1018.47 1018.54 1018.46 1018.21 1017.83 1017.32 1016.74
1013.27 1013.61 1014.00 1014.40 1014.78 1015.11 1015.37 1015.56 1015.69 1015.79 1015.88 1016.00 1016.16 1016.37 1016.61 1016.88 1017.14 1017.36 1017.53 1017.62 1017.63 1017.57 1017.44 1017.28 1017.09 1016.92 1016.78 1016.70 1016.70 1016.77 1016.93 1017.16 1017.45 1017.77 1018.08 1018.36 1018.55 1018.64 1018.60 1018.42 1018.11 1017.68 1017.17
1013.27 1013.63 1014.04 1014.45 1014.84 1015.17 1015.43 1015.62 1015.76 1015.86 1015.97 1016.09 1016.25 1016.45 1016.69 1016.95 1017.20 1017.43 1017.60 1017.72 1017.76 1017.74 1017.67 1017.55 1017.42 1017.28 1017.16 1017.09 1017.07 1017.11 1017.22 1017.40 1017.63 1017.89 1018.16 1018.41 1018.61 1018.72 1018.74 1018.64 1018.42 1018.09 1017.68
1013.25 1013.64 1014.06 1014.48 1014.87 1015.21 1015.47 1015.66 1015.80 1015.91 1016.02 1016.15 1016.31 1016.51 1016.75 1017.01 1017.26 1017.50 1017.70 1017.84 1017.92 1017.95 1017.92 1017.86 1017.77 1017.67 1017.57 1017.50 1017.46 1017.47 1017.52 1017.64 1017.80 1018.00 1018.23 1018.45 1018.65 1018.79 1018.86 1018.85 1018.73 1018.52 1018.24
1013.21 1013.61 1014.04 1014.47 1014.86 1015.19 1015.46 1015.66 1015.80 1015.92 1016.04 1016.17 1016.34 1016.55 1016.79 1017.05 1017.32 1017.57 1017.78 1017.95 1018.07 1018.14 1018.16 1018.14 1018.10 1018.03 1017.95 1017.88 1017.82 1017.79 1017.80 1017.86 1017.96 1018.11 1018.29 1018.49 1018.68 1018.86 1018.98 1019.05 1019.04 1018.95 1018.79
1013.17 1013.56 1013.99 1014.41 1014.80 1015.14 1015.41 1015.62 1015.77 1015.91 1016.04 1016.19 1016.37 1016.58 1016.83 1017.09 1017.36 1017.62 1017.85 1018.04 1018.19 1018.29 1018.35 1018.37 1018.35 1018.31 1018.25 1018.18 1018.11 1018.06 1018.03 1018.04 1018.09 1018.19 1018.34 1018.51 1018.71 1018.91 1019.08 1019.22 1019.30 1019.32 1019.29
1013.16 1013.54 1013.95 1014.36 1014.75 1015.09 1015.37 1015.59 1015.77 1015.92 1016.07 1016.24 1016.43 1016.65 1016.90 1017.16 1017.43 1017.68 1017.91 1018.10 1018.26 1018.38 1018.46 1018.51 1018.51 1018.49 1018.45 1018.39 1018.31 1018.25 1018.19 1018.17 1018.19 1018.25 1018.37 1018.53 1018.72 1018.94 1019.15 1019.34 1019.49 1019.60 1019.65
1013.25 1013.60 1013.99 1014.39 1014.77 1015.11 1015.40 1015.64 1015.84 1016.02 1016.19 1016.37 1016.57 1016.79 1017.03 1017.28 1017.53 1017.76 1017.97 1018.15 1018.30 1018.42 1018.50 1018.56 1018.58 1018.57 1018.54 1018.49 1018.42 1018.35 1018.28 1018.24 1018.24 1018.29 1018.38 1018.53 1018.72 1018.93 1019.16 1019.38 1019.58 1019.74 1019.85
Thickness
5758 5758 5757 5756 5756 5756 5756 5756 5756 5756 5757 5757 5758 5758 5759 5758 5757 5754 5750 5747 5746 5744 5743 5741 5739 5737 5736 5734 5733 5731 5730 5729 5728 5727 5725 5724 5723 5721 5720 5718 5717 5715 5714
5760 5759 5758 5758 5758 5757 5757 5757 5757 5757 5757 5758 5758 5758 5758 5757 5756 5753 5750 5747 5746 5745 5743 5741 5740 5738 5736 5734 5733 5731 5730 5729 5728 5727 5725 5724 5723 5721 5719 5718 5716 5715 5713
5761 5760 5760 5759 5758 5758 5757 5757 5757 5757 5757 5757 5757 5758 5758 5757 5756 5755 5752 5749 5747 5745 5744 5742 5740 5739 5737 5735 5733 5732 5731 5729 5728 5727 5725 5724 5722 5721 5719 5717 5716 5714 5713
5761 5761 5760 5760 5759 5758 5758 5757 5757 5756 5756 5756 5756 5757 5758 5757 5757 5755 5754 5752 5749 5747 5744 5743 5741 5739 5737 5736 5734 5732 5731 5729 5728 5727 5725 5724 5722 5720 5719 5717 5715 5713 5712
5763 5762 5761 5760 5760 5759 5759 5759 5758 5756 5755 5755 5756 5756 5757 5757 5757 5756 5755 5754 5752 5750 5746 5743 5741 5740 5738 5736 5735 5733 5731 5730 5728 5727 5725 5723 5722 5720 5718 5717 5715 5713 5711
5764 5763 5762 5761 5761 5760 5759 5758 5756 5756 5755 5755 5756 5756 5757 5758 5757 5755 5755 5755 5753 5751 5749 5746 5742 5740 5738 5737 5735 5734 5732 5730 5728 5726 5725 5723 5721 5720 5718 5716 5714 5712 5710
5765 5764 5763 5762 5761 5760 5759 5759 5757 5755 5754 5756 5752 5750 5753 5756 5755 5755 5755 5754 5754 5753 5751 5747 5744 5741 5739 5737 5735 5734 5732 5730 5728 5726 5724 5722 5721 5719 5717 5715 5713 5711 5709
5766 5765 5763 5762 5762 5760 5759 5758 5756 5753 5753 5756 5749 5743 5739 5743 5749 5754 5753 5752 5752 5751 5750 5747 5745 5742 5740 5738 5735 5733 5732 5730 5728 5726 5724 5722 5720 5718 5716 5714 5712 5710 5708
5767 5766 5764 5763 5762 5761 5759 5758 5757 5753 5750 5753 5753 5744 5735 5732 5738 5746 5749 5750 5749 5747 5747 5746 5744 5742 5740 5738 5736 5733 5731 5729 5727 5725 5723 5721 5719 5717 5715 5713 5711 5708 5706
5768 5767 5765 5764 5763 5762 5759 5758 5758 5755 5752 5748 5750 5751 5747 5743 5735 5733 5740 5744 5745 5744 5744 5744 5742 5741 5739 5737 5735 5733 5730 5728 5725 5723 5721 5719 5717 5715 5713 5711 5709 5707 5704
5769 5768 5766 5764 5762 5760 5759 5758 5757 5755 5753 5750 5748 5748 5747 5745 5743 5734 5730 5735 5738 5739 5740 5740 5739 5738 5737 5735 5733 5732 5730 5727 5724 5722 5720 5718 5716 5714 5711 5709 5707 5705 5702
5768 5767 5766 5764 5762 5760 5758 5757 5756 5755 5753 5752 5750 5749 5746 5743 5740 5736 5731 5731 5730 5733 5736 5736 5735 5734 5733 5731 5730 5728 5726 5724 5722 5720 5718 5715 5713 5711 5709 5706 5704 5702 5699
5766 5766 5766 5763 5761 5759 5758 5757 5755 5754 5753 5752 5750 5749 5749 5747 5746 5741 5735 5731 5729 5729 5730 5730 5730 5729 5728 5726 5725 5724 5722 5720 5718 5716 5714 5712 5710 5707 5705 5703 5700 5698 5696
5768 5768 5765 5763 5761 5759 5759 5757 5756 5755 5754 5752 5751 5749 5748 5748 5747 5743 5738 5731 5725 5724 5724 5724 5726 5725 5724 5721 5719 5717 5716 5715 5713 5711 5708 5706 5704 5702 5700 5698 5695 5693 5690
5770 5768 5765 5762 5760 5759 5757 5756 5754 5753 5753 5751 5749 5748 5746 5747 5746 5744 5741 5736 5727 5719 5718 5720 5720 5720 5719 5716 5714 5712 5710 5708 5707 5705 5703 5700 5698 5696 5694 5691 5689 5686 5684
5770 5768 5765 5762 5760 5758 5756 5755 5753 5752 5750 5748 5747 5745 5744 5743 5743 5741 5739 5736 5733 5725 5718 5718 5716 5715 5713 5711 5708 5705 5704 5702 5700 5698 5696 5694 5691 5689 5687 5684 5681 5679 5676
5769 5766 5764 5761 5759 5757 5755 5753 5751 5750 5747 5745 5744 5743 5741 5741 5739 5738 5736 5734 5730 5726 5717 5714 5713 5711 5708 5706 5702 5700 5698 5696 5693 5691 5689 5687 5684 5682 5679 5677 5674 5671 5669
5769 5766 5763 5760 5758 5756 5753 5751 5749 5748 5745 5742 5741 5739 5738 5738 5735 5734 5732 5729 5727 5725 5718 5710 5707 5705 5702 5700 5698 5694 5691 5689 5686 5683 5681 5679 5677 5674 5672 5669 5666 5663 5661
5767 5765 5762 5759 5756 5754 5751 5749 5747 5745 5742 5740 5738 5736 5735 5733 5731 5730 5728 5725 5723 5721 5716 5710 5704 5701 5698 5695 5692 5688 5685 5682 5679 5676 5674 5671 5669 5666 5664 5661 5658 5655 5652
5766 5763 5760 5757 5755 5752 5749 5746 5744 5742 5740 5738 5736 5734 5732 5729 5726 5725 5724 5721 5718 5714 5711 5706 5701 5696 5693 5690 5687 5682 5677 5675 5672 5670 5667 5664 5661 5658 5655 5652 5649 5646 5643
5766 5762 5758 5755 5752 5749 5745 5742 5741 5739 5736 5734 5732 5729 5727 5724 5722 5720 5718 5715 5712 5708 5705 5701 5695 5691 5687 5684 5681 5678 5673 5668 5665 5663 5659 5656 5653 5650 5645 5642 5639 5636 5633
5763 5759 5755 5752 5748 5744 5740 5738 5736 5735 5733 5730 5726 5724 5722 5719 5717 5715 5712 5709 5707 5703 5699 5695 5691 5687 5683 5680 5677 5673 5668 5663 5658 5655 5652 5648 5645 5641 5637 5633 5630 5627 5624
5759 5755 5751 5747 5742 5737 5735 5734 5732 5731 5728 5724 5721 5719 5717 5715 5711 5709 5706 5704 5701 5699 5696 5692 5687 5684 5680 5676 5672 5667 5663 5659 5654 5650 5646 5641 5637 5633 5629 5626 5622 5619 5615
5754 5751 5747 5743 5739 5734 5730 5728 5727 5725 5723 5719 5717 5714 5710 5707 5704 5702 5700 5697 5694 5692 5690 5687 5684 5680 5676 5672 5667 5663 5658 5652 5648 5644 5640 5634 5629 5626 5623 5618 5614 5610 5606
5750 5746 5743 5739 5735 5729 5725 5723 5720 5720 5716 5714 5711 5708 5705 5700 5696 5695 5693 5690 5686 5683 5681 5679 5676 5672 5669 5665 5661 5655 5650 5645 5639 5635 5632 5628 5623 5619 5614 5610 5606 5602 5598
5746 5742 5737 5734 5730 5725 5719 5716 5713 5713 5711 5708 5705 5700 5696 5693 5689 5687 5685 5682 5678 5676 5673 5670 5666 5663 5660 5656 5652 5649 5644 5639 5634 5628 5625 5620 5616 5612 5606 5602 5598 5594 5590